Tracking 31027 objects as of 19-Jul-2025
HD Live streaming from Space Station
objects crossing your sky now

DELTA 1 DEB

Track DELTA 1 DEB now!
10-day predictions


NORAD ID: 13533
Int'l Code: 1976-077EF
Perigee: 1,507.4 km
Apogee: 2,100.9 km
Inclination: 101.8 °
Period: 122.6 minutes
Semi major axis: 8175 km
RCS: 0.0714 m2 (small)
Launch date: July 29, 1976
Source: United States (US)
Launch site: AIR FORCE WESTERN TEST RANGE (AFWTR)

Note: This is SATELLITE DEBRIS
Your satellite tracking list
ATLAS 2A CENTAUR R/B
Track 1 satellite(s)




NASA's NSSDC Master Catalog

Two Line Element Set (TLE):
1 13533U 76077EF  25199.48510238  .00000027  00000-0  87400-3 0  9990
2 13533 101.8247 202.2369 0363007 105.5203  45.5298 11.74523352996289
Source of the keplerian elements: AFSPC